| time (UTC) | temp C | wind direction | speed KPH | gust KPH | rain 1hr cm | rain 24hr cm | rain mn cm | humidity % | barometer mb |
| 20260905054458 | 28 | 12 | 6.4 | 8.0 | 0.00 | 0.00 | 0.00 | 70 | 1007.4 |
| 20260905052957 | 28 | 45 | 1.6 | 3.2 | 0.00 | 0.00 | 0.00 | 71 | 1007.4 |
| 20260905051453 | 28 | 135 | 3.2 | 9.7 | 0.00 | 0.00 | 0.00 | 70 | 1007.7 |
| 20260905045951 | 28 | 135 | 0.0 | 8.0 | 0.00 | 0.00 | 0.00 | 71 | 1007.8 |
| 20260905044448 | 28 | 135 | 4.8 | 4.8 | 0.00 | 0.00 | 0.00 | 71 | 1007.9 |
| 20260905042947 | 28 | 135 | 4.8 | 8.0 | 0.00 | 0.00 | 0.00 | 71 | 1008.0 |
| 20260905041443 | 28 | 135 | 1.6 | 4.8 | 0.00 | 0.00 | 0.00 | 71 | 1008.1 |
| 20260905035941 | 28 | 90 | 4.8 | 8.0 | 0.00 | 0.00 | 0.00 | 72 | 1008.3 |
| 20260905034438 | 28 | 87 | 0.0 | 6.4 | 0.00 | 0.00 | 0.00 | 72 | 1008.5 |
| 20260905032937 | 28 | 90 | 0.0 | 8.0 | 0.00 | 0.00 | 0.00 | 72 | 1008.5 |
| 20260905031433 | 28 | 92 | 9.7 | 12.9 | 0.00 | 0.00 | 0.00 | 73 | 1008.7 |
| 20260905025931 | 28 | 135 | 4.8 | 9.7 | 0.00 | 0.00 | 0.00 | 73 | 1009.0 |
| 20260905024428 | 28 | 135 | 3.2 | 9.7 | 0.00 | 0.00 | 0.00 | 72 | 1008.9 |
| 20260905022927 | 28 | 45 | 3.2 | 9.7 | 0.00 | 0.00 | 0.00 | 72 | 1009.0 |
| 20260905021423 | 28 | 108 | 4.8 | 11.3 | 0.00 | 0.00 | 0.00 | 73 | 1009.2 |
| 20260905015921 | 28 | 112 | 1.6 | 6.4 | 0.00 | 0.00 | 0.00 | 73 | 1009.2 |
| 20260905014418 | 28 | 135 | 4.8 | 8.0 | 0.00 | 0.00 | 0.00 | 74 | 1009.6 |
| 20260905011413 | 27 | 135 | 6.4 | 6.4 | 0.00 | 0.00 | 0.00 | 77 | 1009.7 |
| 20260905005911 | 27 | 135 | 0.0 | 8.0 | 0.00 | 0.00 | 0.00 | 77 | 1009.8 |
| 20260905004408 | 27 | 135 | 1.6 | 4.8 | 0.00 | 0.00 | 0.00 | 77 | 1009.7 |
| 20260905002907 | 27 | 135 | 1.6 | 6.4 | 0.00 | 0.00 | 0.00 | 77 | 1009.7 |
| 20260905001403 | 27 | 135 | 4.8 | 4.8 | 0.00 | 0.00 | 0.00 | 77 | 1009.9 |
| 20260904234358 | 27 | 135 | 3.2 | 6.4 | 0.00 | 0.00 | 0.00 | 79 | 1009.7 |
| 20260904232857 | 27 | 135 | 3.2 | 4.8 | 0.00 | 0.00 | 0.00 | 79 | 1009.7 |
| 20260904231353 | 27 | 135 | 0.0 | 4.8 | 0.00 | 0.00 | 0.00 | 79 | 1009.8 |
| 20260904225851 | 27 | 135 | 1.6 | 3.2 | 0.00 | 0.00 | 0.00 | 79 | 1010.0 |
| 20260904222849 | 27 | 54 | 3.2 | 4.8 | 0.00 | 0.00 | 0.00 | 79 | 1009.9 |
| 20260904221343 | 27 | 45 | 1.6 | 4.8 | 0.00 | 0.00 | 0.00 | 79 | 1010.1 |
| 20260904215841 | 27 | 45 | 0.0 | 1.6 | 0.00 | 0.00 | 0.00 | 79 | 1010.1 |
| 20260904214338 | 27 | 45 | 1.6 | 1.6 | 0.00 | 0.00 | 0.00 | 79 | 1010.0 |
| 20260904212837 | 27 | 45 | 1.6 | 3.2 | 0.00 | 0.00 | 0.00 | 79 | 1009.9 |
| 20260904211333 | 27 | 45 | 1.6 | 1.6 | 0.00 | 0.00 | 0.00 | 79 | 1009.6 |
| 20260904205831 | 27 | 45 | 0.0 | 3.2 | 0.00 | 0.00 | 0.00 | 79 | 1009.5 |
| 20260904204328 | 27 | 45 | 0.0 | 3.2 | 0.00 | 0.00 | 0.00 | 79 | 1009.3 |
| 20260904202827 | 27 | 45 | 1.6 | 4.8 | 0.00 | 0.00 | 0.00 | 79 | 1009.3 |
| 20260904201323 | 27 | 45 | 1.6 | 3.2 | 0.00 | 0.00 | 0.00 | 78 | 1009.1 |
| 20260904195820 | 27 | 45 | 3.2 | 4.8 | 0.00 | 0.00 | 0.00 | 78 | 1009.2 |
| 20260904194318 | 27 | 45 | 3.2 | 4.8 | 0.00 | 0.00 | 0.00 | 78 | 1009.2 |
| 20260904192816 | 27 | 45 | 3.2 | 4.8 | 0.00 | 0.00 | 0.00 | 79 | 1009.1 |
| 20260904191313 | 27 | 45 | 3.2 | 4.8 | 0.00 | 0.00 | 0.00 | 79 | 1009.1 |
| 20260904185810 | 27 | 45 | 3.2 | 6.4 | 0.00 | 0.00 | 0.00 | 79 | 1009.2 |
| 20260904184308 | 27 | 45 | 3.2 | 3.2 | 0.00 | 0.00 | 0.00 | 80 | 1009.1 |
| 20260904182806 | 27 | 45 | 0.0 | 4.8 | 0.00 | 0.00 | 0.00 | 79 | 1009.0 |
| 20260904181303 | 27 | 90 | 1.6 | 4.8 | 0.00 | 0.00 | 0.00 | 80 | 1009.0 |
| 20260904175800 | 27 | 56 | 4.8 | 6.4 | 0.00 | 0.00 | 0.00 | 80 | 1009.0 |
| 20260904174258 | 27 | 0 | 1.6 | 6.4 | 0.00 | 0.00 | 0.00 | 80 | 1009.0 |
| 20260904172756 | 27 | 337 | 3.2 | 8.0 | 0.00 | 0.00 | 0.00 | 81 | 1009.2 |
| 20260904171253 | 27 | 315 | 0.0 | 3.2 | 0.00 | 0.00 | 0.00 | 81 | 1009.2 |
| 20260904165750 | 27 | 315 | 1.6 | 4.8 | 0.00 | 0.00 | 0.00 | 82 | 1009.4 |
| 20260904164248 | 27 | 315 | 1.6 | 3.2 | 0.00 | 0.00 | 0.00 | 82 | 1009.4 |
| 20260904162746 | 28 | 315 | 1.6 | 1.6 | 0.00 | 0.00 | 0.00 | 81 | 1009.5 |
| 20260904161243 | 28 | 315 | 1.6 | 4.8 | 0.00 | 0.00 | 0.00 | 81 | 1009.2 |
| 20260904155740 | 28 | 315 | 1.6 | 4.8 | 0.00 | 0.00 | 0.00 | 81 | 1009.0 |
| 20260904154238 | 28 | 0 | 0.0 | 8.0 | 0.00 | 0.00 | 0.00 | 81 | 1008.8 |
| 20260904152736 | 28 | 0 | 1.6 | 4.8 | 0.00 | 0.00 | 0.00 | 82 | 1008.9 |
| 20260904151233 | 28 | 0 | 0.0 | 4.8 | 0.00 | 0.00 | 0.00 | 83 | 1008.5 |
| 20260904145730 | 28 | 0 | 3.2 | 6.4 | 0.00 | 0.00 | 0.00 | 83 | 1009.2 |
| 20260904144228 | 28 | 0 | 1.6 | 1.6 | 0.00 | 0.00 | 0.00 | 83 | 1008.9 |
| 20260904142726 | 28 | 0 | 3.2 | 6.4 | 0.00 | 0.00 | 0.00 | 82 | 1008.5 |
| 20260904141223 | 28 | 337 | 4.8 | 6.4 | 0.00 | 0.00 | 0.00 | 83 | 1008.6 |
| 20260904135720 | 28 | 337 | 1.6 | 6.4 | 0.00 | 0.00 | 0.00 | 84 | 1008.8 |
| 20260904134218 | 28 | 337 | 3.2 | 4.8 | 0.00 | 0.00 | 0.00 | 84 | 1009.2 |
| 20260904132716 | 28 | 337 | 3.2 | 8.0 | 0.00 | 0.00 | 0.00 | 84 | 1009.1 |
| 20260904131213 | 28 | 337 | 1.6 | 3.2 | 0.00 | 0.00 | 0.00 | 85 | 1009.3 |
| 20260904125710 | 28 | 337 | 3.2 | 6.4 | 0.00 | 0.00 | 0.00 | 84 | 1008.9 |
| 20260904124208 | 28 | 337 | 3.2 | 6.4 | 0.00 | 0.00 | 0.00 | 85 | 1009.2 |
| 20260904122706 | 28 | 337 | 3.2 | 3.2 | 0.00 | 0.00 | 0.00 | 85 | 1009.2 |
| 20260904121203 | 28 | 337 | 0.0 | 1.6 | 0.00 | 0.00 | 0.00 | 85 | 1008.8 |
| 20260904115700 | 28 | 337 | 1.6 | 3.2 | 0.00 | 0.00 | 0.00 | 84 | 1009.4 |
| 20260904114158 | 28 | 337 | 1.6 | 4.8 | 0.00 | 0.00 | 0.00 | 84 | 1009.5 |
| 20260904111148 | 28 | 337 | 3.2 | 3.2 | 0.00 | 0.00 | 0.00 | 84 | 1009.9 |
| 20260904105645 | 28 | 337 | 0.0 | 3.2 | 0.00 | 0.00 | 0.00 | 84 | 1009.6 |
| 20260904104143 | 28 | 337 | 0.0 | 3.2 | 0.00 | 0.00 | 0.00 | 83 | 1009.1 |
| 20260904102641 | 28 | 315 | 4.8 | 8.0 | 0.00 | 0.00 | 0.00 | 84 | 1008.6 |
| 20260904101138 | 28 | 45 | 3.2 | 8.0 | 0.00 | 0.00 | 0.00 | 85 | 1008.9 |
| 20260904095635 | 28 | 90 | 1.6 | 4.8 | 0.00 | 0.00 | 0.00 | 85 | 1008.5 |
| 20260904094133 | 28 | 90 | 1.6 | 1.6 | 0.00 | 0.00 | 0.00 | 85 | 1009.0 |
| 20260904092631 | 28 | 90 | 0.0 | 0.0 | 0.00 | 0.00 | 0.00 | 86 | 1009.3 |
| 20260904091128 | 28 | 87 | 0.0 | 0.0 | 0.00 | 0.00 | 0.00 | 84 | 1008.6 |
| 20260904085625 | 28 | 90 | 0.0 | 1.6 | 0.00 | 0.00 | 0.00 | 84 | 1008.2 |
| 20260904084123 | 28 | 90 | 0.0 | 0.0 | 0.00 | 0.00 | 0.00 | 83 | 1008.6 |
| 20260904082621 | 28 | 135 | 0.0 | 1.6 | 0.00 | 0.00 | 0.00 | 84 | 1009.1 |
| 20260904081118 | 28 | 135 | 0.0 | 4.8 | 0.00 | 0.00 | 0.00 | 84 | 1009.5 |
| 20260904075615 | 28 | 45 | 0.0 | 1.6 | 0.00 | 0.00 | 0.00 | 84 | 1009.7 |
| 20260904074113 | 28 | 45 | 1.6 | 4.8 | 0.00 | 0.00 | 0.00 | 84 | 1009.0 |
| 20260904072611 | 28 | 45 | 3.2 | 3.2 | 0.00 | 0.00 | 0.00 | 84 | 1009.1 |
| 20260904071108 | 28 | 45 | 1.6 | 1.6 | 0.00 | 0.00 | 0.00 | 83 | 1009.4 |
| 20260904065605 | 28 | 45 | 1.6 | 1.6 | 0.00 | 0.00 | 0.00 | 83 | 1009.5 |
| 20260904064103 | 28 | 45 | 1.6 | 1.6 | 0.00 | 0.00 | 0.00 | 83 | 1010.0 |
| 20260904062601 | 28 | 45 | 1.6 | 1.6 | 0.00 | 0.00 | 0.00 | 83 | 1010.3 |
| 20260904061058 | 28 | 112 | 1.6 | 1.6 | 0.00 | 0.00 | 0.00 | 82 | 1010.2 |